Location: ??
(35.4032°N, 139.3073°E)
Time: 12:03:54
(UTC+00:00)

Cosmos 1452 Rocket - Pass Details

Date: 13 April 2024
Orbit: 766 x 772 km, 74.1° (Epoch: 26 May)

Event Time Altitude Azimuth Distance (km) Brightness Sun altitude
Rises 19:45:06 0° 344° (NNW) 3,245 6.8 -6.1°
Reaches altitude 10° 19:47:30 10° 346° (NNW) 2,314 6.0 -5.6°
Maximum altitude 19:52:45 74° 72° (ENE) 799 3.9 -4.6°
Drops below altitude 10° 19:57:57 10° 158° (SSE) 2,296 6.1 -3.6°
Sets 20:00:19 0° 160° (SSE) 3,217 6.8 -3.1°
